|
|
Asteroid 2010 PJ
(Preview)
Orbital elements: 2010 PJ Earth MOID = 0.0844 AU Epoch 2010 July 23.0 TT = JDT 2455400.5 MPC M 328.68842 (2000.0) P Q n 0.45009971 Peri. 251.35625 +0.84547055 -0.39518228 a 1.6862821 Node 130.14524 +0.44765188 +0.89120797 e 0.4803270 Incl. 28.02635 -0.29118267 +0.22266413 P 2.19 H 21.9 G 0.15 U 8 [...
|
Blobrana
|
1
|
|
|
|
|
Asteroid 210271 Samarkand (2007 TU2)
(Preview)
On a spectacularly clear night in October 2007, two astronomers pored over celestial images during the course of their usual work at Maidanak Observatory, high in the hills near the town of Kitob, in southern Uzbekistan. As they examined the images, they noticed a star-like object moving along an a...
|
Blobrana
|
0
|
|
|
|
|
Asteroid 2010 PR10
(Preview)
Orbital elements: 2010 PR10 Earth MOID = 0.0548 AU Epoch 2010 July 23.0 TT = JDT 2455400.5 MPC M 282.15324 (2000.0) P Q n 0.75272554 Peri. 65.17696 +0.76357201 -0.64211931 a 1.1968644 Node 334.60246 +0.52014494 +0.67415671 e 0.1752907 Incl. 9.13902 +0.38263171 +0.36495963 P 1.31 H 21.9 G 0.15 U 8 [...
|
Blobrana
|
1
|
|
|
|
|
Asteroid 2010 PQ10
(Preview)
Orbital elements: 2010 PQ10 Earth MOID = 0.1329 AU Epoch 2010 July 23.0 TT = JDT 2455400.5 MPC M 167.63971 (2000.0) P Q n 1.27331728 Peri. 6.82713 -0.63386753 -0.70623645 a 0.8430338 Node 123.05335 +0.69064112 -0.70036730 e 0.3753324 Incl. 22.10052 +0.34817638 +0.10351677 P 0.77 H 21.4 G 0.15 U 8 [...
|
Blobrana
|
0
|
|
|
|
|
Asteroid 2010 PM10
(Preview)
Orbital elements: 2010 PM10 Earth MOID = 0.2130 AU Epoch 2010 July 23.0 TT = JDT 2455400.5 MPC M 337.58234 (2000.0) P Q n 0.32247799 Peri. 60.81604 +0.97876759 -0.20410637 a 2.1060532 Node 310.95445 +0.17833674 +0.89326249 e 0.4247585 Incl. 1.42873 +0.10104457 +0.40052805 P 3.06 H 19.7 G 0.15 U 8 [...
|
Blobrana
|
0
|
|
|
|
|
Asteroid 2007 RN7
(Preview)
Orbital elements: 2007 RN7 Earth MOID = 0.1764 AU Epoch 2010 July 23.0 TT = JDT 2455400.5 MPC M 308.08266 (2000.0) P Q n 0.66678842 Peri. 232.40524 +0.90048280 -0.42775162 a 1.2976095 Node 152.65878 +0.43303216 +0.86524169 e 0.1122513 Incl. 9.83871 +0.04017306 +0.26150598 P 1.48 H 21.6 G 0.15 U 1 [...
|
Blobrana
|
0
|
|
|
|
|
Asteroid 2008 VQ4
(Preview)
Orbital elements: 2008 VQ4 Earth MOID = 0.2358 AU Epoch 2010 July 23.0 TT = JDT 2455400.5 MPC M 208.91290 (2000.0) P Q n 0.42569198 Peri. 232.53843 -0.61325211 -0.76539981 a 1.7501385 Node 256.43507 +0.77319301 -0.53115471 e 0.3320045 Incl. 11.58104 +0.16153764 -0.36337007 P 2.32 H 19.3 G 0.15 U 3...
|
Blobrana
|
0
|
|
|
|
|
Asteroid 2008 UW5
(Preview)
Orbital elements: 2008 UW5 Earth MOID = 0.1458 AU Epoch 2010 July 23.0 TT = JDT 2455400.5 MPC M 180.39273 (2000.0) P Q n 0.39742642 Peri. 204.25119 -0.78613767 -0.60090958 a 1.8321663 Node 298.03089 +0.59043874 -0.66105836 e 0.3892835 Incl. 9.42533 +0.18267363 -0.44934344 P 2.48 H 18.1 G 0.15 U 3 [...
|
Blobrana
|
0
|
|
|
|
|
Asteroid (2312) Duboshin
(Preview)
The magnitude 16.4 asteroid (2312) Duboshin will occult the magnitude 3.3 star HD 177716 (40 Sgr) in the constellation Sagittarius, at 09:14 UT, 8th August 2010 The 5.7 second event is visible from the Pacific Ocean and New Guinea. Position(2000): RA 19 06 56.4089, Dec -27 40 13.523
|
Blobrana
|
0
|
|
|
|
|
Asteroid 2010 PM9
(Preview)
Orbital elements: 2010 PM9 PHA, Earth MOID = 0.0453 AU Epoch 2010 July 23.0 TT = JDT 2455400.5 MPC M 341.17851 (2000.0) P Q n 0.22268797 Peri. 149.14610 +0.53578205 -0.84055882 a 2.6956999 Node 268.34531 +0.75744127 +0.52033262 e 0.7275857 Incl. 4.58993 +0.37312238 +0.15071443 P 4.43 H 19.6 G 0.1...
|
Blobrana
|
2
|
|
|
|
|
Asteroid 2010 PH9
(Preview)
Orbital elements: 2010 PH9 Earth MOID = 0.0162 AU Epoch 2010 July 23.0 TT = JDT 2455400.5 MPC M 349.64316 (2000.0) P Q n 0.69441207 Peri. 182.18706 +0.69805518 +0.69896388 a 1.2629647 Node 132.13446 -0.65373417 +0.71069132 e 0.1840348 Incl. 12.10116 -0.29214823 +0.07979564 P 1.42 H 26.5 G 0.15 U 7...
|
Blobrana
|
1
|
|
|
|
|
Asteroid 2010 PJ9
(Preview)
Orbital elements: 2010 PJ9 Earth MOID = 0.0035 AU Epoch 2010 July 23.0 TT = JDT 2455400.5 MPC M 338.76117 (2000.0) P Q n 0.35919845 Peri. 227.19112 +0.96528768 -0.26099066 a 1.9599564 Node 147.93380 +0.24488241 +0.89078422 e 0.5696612 Incl. 1.09835 +0.09084212 +0.37200449 P 2.74 H 24.6 G 0.15 U 7 [...
|
Blobrana
|
1
|
|
|
|
|
Asteroid 2010 PL9
(Preview)
Orbital elements: 2010 PL9 Earth MOID = 0.3531 AU Epoch 2010 July 23.0 TT = JDT 2455400.5 MPC M 341.83941 (2000.0) P Q n 0.29110101 Peri. 49.04267 +0.96029861 +0.06334278 a 2.2547942 Node 305.56572 -0.20968385 +0.80624917 e 0.4279071 Incl. 19.51143 +0.18400888 +0.58817511 P 3.39 H 20.1 G 0.15 U 9 [...
|
Blobrana
|
0
|
|
|
|
|
Asteroid 2000 AA6
(Preview)
The 110 - 240 metre wide asteroid 2000 AA6 made a close pass (15.6 lunar distances, 0.0401 AU), travelling at 14.96 km/second, to the Earth-Moon system on the 26th July, 2010 @ 21:28 UT. See more The Lunar Distance (LD), the...
|
Blobrana
|
0
|
|
|
|
|
Asteroid 2009 MG10
(Preview)
Orbital elements: 2009 MG10 Epoch 2009 July 8.0 TT = JDT 2455020.5 MPC M 14.91427 (2000.0) P Q n 0.00301200 Peri. 187.28812 +0.02246978 +0.94032712 a 47.4860378 Node 84.43352 -0.89917629 +0.16746057 e 0.3376972 Incl. 19.94621 -0.43700928 -0.29621254 P 327 H 7.0 G 0.15 From 8 observations 2009 Ju...
|
Blobrana
|
0
|
|
|